This is the latest recevied weather packets stored in our database for station/object DC4AT. If no packets are shown the sender has not sent any weather packets the latest 10 day(s).
| Time | Temp. | Humidity | Pressure | Rain* | Wind** | Luminosity | Snow |
|---|---|---|---|---|---|---|---|
| 1777800220 | 20.56° C | 49% | 1013.4 hPa | 0 mm | - | 338 W/m² | - |
| 1777799620 | 20.56° C | 50% | 1013.4 hPa | 0 mm | - | 246 W/m² | - |
| 1777799020 | 20.56° C | 53% | 1013.4 hPa | 0 mm | - | 244 W/m² | - |
| 1777797220 | 20° C | 58% | 1013.3 hPa | 0 mm | - | 334 W/m² | - |
| 1777796620 | 19.44° C | 57% | 1013.4 hPa | 0 mm | - | 385 W/m² | - |
| 1777796020 | 18.89° C | 58% | 1013.3 hPa | 0 mm | - | 429 W/m² | - |
| 1777795420 | 18.33° C | 57% | 1013.2 hPa | 0 mm | - | 381 W/m² | - |
| 1777794820 | 18.33° C | 57% | 1013.3 hPa | 0 mm | - | 230 W/m² | - |
| 1777794220 | 18.33° C | 55% | 1013.5 hPa | 0 mm | - | 183 W/m² | - |
| 1777793620 | 17.78° C | 56% | 1013.2 hPa | 0 mm | - | 246 W/m² | - |
| 1777793020 | 16.67° C | 60% | 1013.3 hPa | 0 mm | - | 406 W/m² | - |
| 1777792420 | 16.11° C | 68% | 1013.3 hPa | 0 mm | - | 378 W/m² | - |
| 1777791820 | 15° C | 69% | 1013.4 hPa | 0 mm | - | 341 W/m² | - |
| 1777791220 | 14.44° C | 66% | 1013.2 hPa | 0 mm | - | 260 W/m² | - |
| 1777790020 | 13.89° C | 71% | 1013.2 hPa | 0 mm | - | 141 W/m² | - |
| 1777789420 | 13.33° C | 72% | 1013.2 hPa | 0 mm | - | 265 W/m² | - |
| 1777788820 | 12.78° C | 73% | 1013.3 hPa | 0 mm | - | 265 W/m² | - |
| 1777788220 | 12.22° C | 74% | 1013.2 hPa | 0 mm | - | 218 W/m² | - |
| 1777787620 | 11.67° C | 74% | 1013.1 hPa | 0 mm | - | 135 W/m² | - |
| 1777787020 | 11.67° C | 76% | 1013.2 hPa | 0 mm | - | 79 W/m² | - |
| 1777786421 | 11.11° C | 78% | 1013.2 hPa | 0 mm | - | 44 W/m² | - |
| 1777785821 | 10.56° C | 82% | 1013.2 hPa | 0 mm | - | 46 W/m² | - |
| 1777785221 | 10° C | 84% | 1013.1 hPa | 0 mm | - | 47 W/m² | - |
| 1777784621 | 9.44° C | 83% | 1013.3 hPa | 0 mm | - | 49 W/m² | - |
| 1777784021 | 8.89° C | 84% | 1013.4 hPa | 0 mm | - | 40 W/m² | - |
* Rain latest hour (hover to see other rain measurements)
** Current wind speed in m/s (hover to see current wind gust speed)